SCP
2 1 2 1 0 0 0 0 0 0 0 0 0 0 0 0 0 0 0 0 0 0 0 0 0 0 0 0 0 0 0 0 0 0 0 0 0 0 0 0 0 0 0
1 1 2 1 0 0 0 0 0 0 0 0 0 0 0 0 0 0 0 0 0 0 0 0 0 0 0 0 0 0 0 0 0 0 0 0 0 0 0 0 0 0 0
1 1 1 1 0 0 0 0 0 0 0 0 0 0 0 0 0 0 0 0 0 0 0 0 0 0 0 0 0 0 0 0 0 0 0 0 0 0 0 0 0 0 0
1 1 1 1 0 0 0 0 0 0 0 0 0 0 0 0 0 0 0 0 0 0 0 0 0 0 0 0 0 0 0 0 0 0 0 0 0 0 0 0 0 0 0
1 1 1 1 0 0 0 0 0 0 0 0 0 0 0 0 0 0 0 0 0 0 0 0 0 0 0 0 0 0 0 0 0 0 0 0 0 0 0 0 0 0 0
0 1 1 1 0 0 0 0 0 0 0 0 0 0 0 0 0 0 0 0 0 0 0 0 0 0 0 0 0 0 0 0 0 0 0 0 0 0 0 0 0 0 0
0 0 0 0 0 0 0 0 0 0 0 0 0 0 0 0 0 0 0 0 0 0 0 0 0 0 0 0 0 0 0 0 0 0 0 0 0 0 0 0 0 0 0
0 0 1 0 0 0 0 0 0 0 0 0 0 0 0 0 0 0 0 0 0 0 0 0 0 0 0 0 0 0 0 0 0 0 0 0 0 0 0 0 0 0 0
0 0 0 0 0 0 0 0 0 0 0 0 0 0 0 0 0 0 0 0 0 0 0 0 0 0 0 0 0 0 0 0 0 0 0 0 0 0 0 0 0 0 0
0 0 0 0 0 0 0 0 0 0 0 0 0 0 0 0 0 0 0 0 0 0 0 0 0 0 0 0 0 0 0 0 0 0 0 0 0 0 0 0 0 0 0
-0 0 0 0 0 0 0 0 0 0 0 0 0 0 0 0 0 0 0 0 0 0 0 0 0 0 0 0 0 0 0 0 0 0 0 0 0 0 0 0 0 0 0
-0 -0 0 0 0 0 0 0 0 0 0 0 0 0 0 0 0 0 0 0 0 0 0 0 0 0 0 0 0 0 0 0 0 0 0 0 0 0 0 0 0 0 0
-0 -0 0 0 0 0 0 0 0 0 0 0 0 0 0 0 0 0 0 0 0 0 0 0 0 0 0 0 0 0 0 0 0 0 0 0 0 0 0 0 0 0 0
-0 -0 -0 0 0 0 0 0 0 0 0 0 0 0 0 0 0 0 0 0 0 0 0 0 0 0 0 0 0 0 0 0 0 0 0 0 0 0 0 0 0 0 0
-0 -0 -0 -0 0 0 0 0 0 0 0 0 0 0 0 0 0 0 0 0 0 0 0 0 0 0 0 0 0 0 0 0 0 0 0 0 0 0 0 0 0 0 0
-0 -0 -0 -0 0 0 0 0 0 0 0 0 0 0 0 0 0 0 0 0 0 0 0 0 0 0 0 0 0 0 0 0 0 0 0 0 0 0 0 0 0 0 0
-0 -0 -0 -0 -0 0 0 0 0 0 0 0 0 0 0 0 0 0 0 0 0 0 0 0 0 0 0 0 0 0 0 0 0 0 0 0 0 0 0 0 0 0 0
-0 -0 -0 -0 -0 0 0 0 0 0 0 0 0 0 0 0 0 0 0 0 0 0 0 0 0 0 0 0 0 0 0 0 0 0 0 0 0 0 0 0 0 0 0
0 -0 -0 0 -0 -0 0 0 0 0 0 0 0 0 0 0 0 0 0 0 0 0 0 0 0 0 0 0 0 0 0 0 0 0 0 0 0 0 0 0 0 0 0
0 0 -0 0 -0 -0 0 0 0 0 0 0 0 0 0 0 0 0 0 0 0 0 0 0 0 0 0 0 0 0 0 0 0 0 0 0 0 0 0 0 0 0 0
-0 0 0 0 0 -0 0 0 0 0 0 0 0 0 0 0 0 0 0 0 0 0 0 0 0 0 0 0 0 0 0 0 0 0 0 0 0 0 0 0 0 0 0
-0 -0 0 0 0 -0 0 0 0 0 0 0 0 0 0 0 0 0 0 0 0 0 0 0 0 0 0 0 0 0 0 0 0 0 0 0 0 0 0 0 0 0 0
-0 -0 -0 0 0 0 0 0 0 0 0 0 0 0 0 0 0 0 0 0 0 0 0 0 0 0 0 0 0 0 0 0 0 0 0 0 0 0 0 0 0 0 0
-0 0 -0 0 0 0 0 0 0 0 0 0 0 0 0 0 0 0 0 0 0 0 0 0 0 0 0 0 0 0 0 0 0 0 0 0 0 0 0 0 0 0 0
0 0 0 0 0 0 0 0 0 0 0 0 0 0 0 0 0 0 0 0 0 0 0 0 0 0 0 0 0 0 0 0 0 0 0 0 0 0 0 0 0 0 0
0 0 0 0 0 0 0 0 0 0 0 0 0 0 0 0 0 0 0 0 0 0 0 0 0 0 0 0 0 0 0 0 0 0 0 0 0 0 0 0 0 0 0
Wind_Speed_500mb
70 65 57 59 56 53 51 51 65 48 29 26 32 77 76 73 60 55 54 60 55 61 58 53 48 46 41 47 48 47 47 47 44 41 41 41 37 37 34 36 33 28 29
71 66 61 65 62 54 52 58 67 70 55 69 46 51 31 63 62 57 52 53 53 61 50 47 39 42 50 50 53 50 46 49 45 42 44 41 36 35 32 30 29 28 29
74 64 69 69 67 62 62 65 59 58 54 58 63 57 51 55 58 48 49 54 53 53 45 40 50 57 54 54 53 51 47 46 45 43 39 37 35 32 31 30 31 32 32
76 72 72 72 69 63 65 66 59 59 59 66 73 63 63 57 53 52 48 49 53 51 50 56 55 54 58 54 52 50 47 45 43 41 38 36 33 33 35 37 38 37 36
81 76 78 74 71 74 73 69 62 59 74 73 61 63 59 69 59 60 67 60 55 51 55 54 53 53 52 52 49 48 47 44 44 41 38 37 39 41 42 42 40 39 38
83 83 80 81 79 82 82 76 59 69 76 84 78 63 55 65 61 55 55 68 62 60 57 55 61 54 54 51 48 47 46 44 42 41 42 43 43 41 40 39 37 34 31
90 90 83 92 88 89 90 83 73 83 85 90 80 62 60 56 58 52 61 62 63 70 68 66 63 59 55 53 48 46 46 45 44 43 41 40 38 36 35 33 31 29 26
85 98 94 91 96 95 94 96 91 92 93 105 91 88 62 70 66 64 64 69 66 71 75 72 65 64 57 52 52 49 50 46 44 41 40 37 33 30 27 25 24 21 15
75 87 98 93 104 108 104 103 105 107 101 96 100 97 57 45 81 74 78 75 71 71 83 78 73 65 59 61 60 51 45 41 39 35 34 32 28 25 22 19 19 17 19
99 86 95 94 132 123 112 115 114 114 114 113 93 80 73 70 81 53 71 79 80 77 71 75 70 62 56 64 62 57 53 45 38 34 29 25 25 25 27 23 21 20 20
82 80 103 104 96 101 110 121 116 121 116 114 97 84 78 57 74 65 59 68 88 82 78 69 69 64 61 67 65 58 53 49 44 50 40 34 30 29 28 26 23 23 23
77 80 79 90 99 123 112 115 116 122 119 119 120 103 90 84 89 78 63 73 84 83 81 77 74 68 65 69 65 61 53 51 51 46 43 37 32 29 27 27 27 27 28
64 74 65 85 95 95 111 112 117 123 121 119 129 119 103 90 91 99 79 80 79 84 82 84 79 76 75 73 69 62 57 57 56 50 43 39 37 34 33 33 32 32 31
75 73 63 70 98 110 99 114 119 120 127 124 124 130 120 99 83 99 100 96 68 78 78 81 83 83 79 77 69 66 66 60 55 52 47 45 43 41 39 36 35 32 31
77 80 62 81 47 109 117 118 120 121 124 132 132 130 111 104 100 90 92 107 102 66 72 74 78 84 78 74 71 66 62 60 58 54 50 50 47 44 41 40 37 37 36
78 69 73 69 84 82 125 127 124 123 127 130 139 126 111 106 105 93 84 102 103 83 78 81 93 90 86 78 68 65 63 59 58 56 54 48 47 46 45 45 44 40 37
65 71 67 68 56 56 126 126 134 129 134 129 131 134 123 106 114 105 100 97 96 88 78 81 90 93 87 81 71 72 65 65 63 57 54 49 51 49 50 48 45 41 39
64 73 70 70 61 92 80 117 132 133 133 133 122 133 122 123 109 119 117 99 87 80 83 91 99 96 93 84 79 73 74 67 61 60 55 54 53 52 50 48 43 40 39
56 66 72 75 63 75 53 141 118 125 129 131 131 128 124 123 118 111 114 112 96 86 82 85 81 86 92 86 83 76 72 68 65 60 59 57 54 53 51 47 45 43 42
55 55 75 76 67 66 82 116 123 134 128 131 120 135 123 139 125 115 107 111 101 94 93 84 75 79 86 90 87 88 81 77 73 68 64 61 59 57 53 50 49 48 47
81 65 73 78 74 63 69 105 133 129 133 133 142 134 134 139 127 118 105 112 109 99 96 90 80 88 93 96 97 93 90 85 75 74 73 70 69 66 63 58 55 56 53
107 93 88 94 84 72 69 95 141 141 136 137 144 143 140 136 117 116 111 112 116 116 100 103 94 95 95 93 102 99 98 90 83 83 79 77 73 70 68 64 63 59 57
81 91 94 92 84 72 88 98 127 133 139 138 141 144 140 122 112 107 106 110 116 120 118 99 104 101 97 95 97 104 98 94 95 93 90 86 83 78 71 67 67 64 64
54 53 68 77 76 67 63 107 141 134 135 138 137 133 132 126 116 115 109 109 113 116 118 113 94 94 96 102 98 92 92 103 98 84 93 96 91 84 78 76 74 72 70
54 42 61 68 64 67 62 114 142 130 132 133 132 135 133 146 128 135 121 117 113 110 100 105 99 85 91 94 98 101 93 96 96 94 90 95 91 90 89 83 81 78 75
50 55 60 59 57 58 58 112 124 133 125 121 129 117 135 134 122 125 125 116 111 105 108 111 107 98 91 94 94 90 93 98 106 93 101 97 92 96 78 90 87 86 83
Wind_Direction_500mb
240 237 232 228 233 234 233 220 218 188 196 332 154 174 184 182 182 184 187 185 190 181 179 185 192 199 200 188 167 162 168 173 164 153 147 140 139 135 129 124 124 117 115
238 234 228 232 228 225 220 223 218 211 248 252 254 283 234 181 182 177 182 181 184 179 180 173 180 171 168 167 166 162 154 158 151 149 143 145 143 140 140 132 126 118 111
235 230 232 232 230 224 221 215 226 239 233 222 226 223 205 192 195 183 177 183 179 179 185 184 169 162 163 163 164 163 158 157 155 157 151 150 147 143 136 130 126 119 111
241 227 233 231 233 220 215 210 202 191 186 183 176 179 186 185 188 189 183 183 182 183 181 169 167 167 162 167 164 160 158 155 157 156 154 148 143 136 133 128 124 119 113
244 230 231 226 224 212 205 209 200 196 188 185 186 186 187 185 182 196 194 194 203 192 175 169 171 173 168 170 164 159 158 158 156 156 152 145 139 133 130 127 124 119 113
248 227 225 225 219 212 209 207 198 192 187 182 183 182 186 189 187 197 188 191 200 194 180 178 176 173 172 169 167 163 158 158 156 153 148 141 136 133 131 129 126 120 116
249 225 228 222 220 214 211 205 197 191 187 181 172 170 182 193 196 198 192 201 202 187 178 174 171 174 174 177 171 163 157 154 151 152 149 145 141 138 138 135 131 129 123
252 250 230 226 223 215 211 206 197 188 184 184 179 171 171 187 197 199 201 198 190 185 178 177 176 177 181 180 167 162 155 156 154 156 156 150 149 149 146 146 141 136 137
265 251 237 217 224 222 214 208 198 193 187 192 191 180 168 189 189 195 197 197 201 186 176 176 175 179 186 174 164 164 164 159 159 164 166 164 159 159 161 179 183 182 178
288 250 246 228 217 226 218 210 204 197 196 193 191 186 182 183 176 182 188 188 188 186 181 179 181 183 187 177 173 176 180 184 180 186 184 188 190 192 189 192 187 190 193
273 310 240 237 239 221 219 212 210 203 203 198 193 187 189 189 184 188 187 191 186 184 189 188 188 189 193 190 188 188 190 190 199 200 196 206 206 202 204 207 207 211 217
277 290 256 238 227 223 220 205 211 208 205 202 195 188 191 190 187 189 191 188 180 181 183 189 191 191 196 197 200 200 198 203 203 205 208 218 224 224 223 225 221 214 215
297 273 289 238 227 225 218 212 208 206 203 196 197 193 197 198 201 199 189 191 186 178 183 192 195 197 200 205 206 205 203 207 210 215 222 230 233 231 226 224 219 217 218
306 286 283 302 220 215 226 208 212 209 202 198 198 200 198 197 198 200 200 195 185 180 188 188 197 201 203 208 210 212 216 217 221 224 226 230 230 228 222 220 218 217 205
306 295 279 255 308 226 217 210 202 206 198 199 200 200 202 202 198 196 202 202 202 190 196 196 201 206 209 211 214 216 220 220 222 223 224 225 224 220 213 213 205 199 199
294 294 290 280 262 234 214 213 205 200 198 198 202 205 204 207 201 202 194 203 204 198 200 206 208 209 209 213 215 219 220 218 217 216 217 214 213 213 209 200 198 201 204
282 290 297 287 255 305 208 200 200 201 204 198 201 202 205 214 208 207 209 215 209 209 204 204 213 212 212 214 212 216 216 213 211 209 209 208 208 205 200 202 203 202 208
276 284 292 303 274 243 231 211 206 205 204 194 196 204 206 212 210 206 209 213 212 211 210 209 214 214 214 210 213 212 211 209 207 205 203 204 201 200 205 206 206 210 214
288 278 281 290 275 244 297 204 208 207 207 207 203 204 203 209 212 214 215 215 213 212 214 218 214 207 205 203 203 206 207 205 205 204 201 198 202 205 207 211 214 212 206
270 281 277 286 289 270 249 206 205 204 209 207 213 202 203 202 213 214 215 215 212 211 213 216 219 207 202 198 199 199 197 201 200 200 200 202 205 206 208 212 212 209 203
258 263 275 283 289 278 239 208 206 208 206 203 203 204 206 206 214 217 215 212 210 211 212 213 209 203 195 194 196 198 201 197 197 204 202 206 206 207 207 207 207 206 204
255 259 267 278 288 273 234 217 204 205 205 203 205 203 204 211 211 215 218 215 212 210 209 209 209 205 204 202 199 200 200 196 198 205 207 210 210 212 212 210 208 208 205
267 261 267 275 273 267 229 220 213 205 207 206 205 205 209 213 213 215 217 219 215 216 219 217 214 211 208 206 204 202 207 210 209 209 206 210 211 211 213 212 210 210 211
258 251 257 261 268 259 244 215 207 201 206 208 209 210 214 213 216 216 217 217 220 219 220 225 230 223 215 208 209 210 212 207 209 209 208 208 209 213 213 212 211 211 212
257 249 253 262 262 255 240 214 206 199 205 211 211 212 211 212 210 216 219 218 219 220 220 227 225 227 223 222 216 210 209 209 207 211 209 213 212 212 212 212 211 212 212
253 255 259 259 264 257 240 215 210 204 210 213 213 222 213 216 218 218 217 216 218 218 216 217 219 224 227 230 230 229 230 218 213 209 211 210 213 211 207 211 213 212 212
Wind_Speed_850mb
70 65 57 59 56 53 51 51 65 48 29 26 32 77 76 73 60 55 54 60 55 61 58 53 48 46 41 47 48 47 47 47 44 41 41 41 37 37 34 36 33 28 29
71 66 61 65 62 54 52 58 67 70 55 69 46 51 31 63 62 57 52 53 53 61 50 47 39 42 50 50 53 50 46 49 45 42 44 41 36 35 32 30 29 28 29
74 64 69 69 67 62 62 65 59 58 54 58 63 57 51 55 58 48 49 54 53 53 45 40 50 57 54 54 53 51 47 46 45 43 39 37 35 32 31 30 31 32 32
76 72 72 72 69 63 65 66 59 59 59 66 73 63 63 57 53 52 48 49 53 51 50 56 55 54 58 54 52 50 47 45 43 41 38 36 33 33 35 37 38 37 36
81 76 78 74 71 74 73 69 62 59 74 73 61 63 59 69 59 60 67 60 55 51 55 54 53 53 52 52 49 48 47 44 44 41 38 37 39 41 42 42 40 39 38
83 83 80 81 79 82 82 76 59 69 76 84 78 63 55 65 61 55 55 68 62 60 57 55 61 54 54 51 48 47 46 44 42 41 42 43 43 41 40 39 37 34 31
90 90 83 92 88 89 90 83 73 83 85 90 80 62 60 56 58 52 61 62 63 70 68 66 63 59 55 53 48 46 46 45 44 43 41 40 38 36 35 33 31 29 26
85 98 94 91 96 95 94 96 91 92 93 105 91 88 62 70 66 64 64 69 66 71 75 72 65 64 57 52 52 49 50 46 44 41 40 37 33 30 27 25 24 21 15
75 87 98 93 104 108 104 103 105 107 101 96 100 97 57 45 81 74 78 75 71 71 83 78 73 65 59 61 60 51 45 41 39 35 34 32 28 25 22 19 19 17 19
99 86 95 94 132 123 112 115 114 114 114 113 93 80 73 70 81 53 71 79 80 77 71 75 70 62 56 64 62 57 53 45 38 34 29 25 25 25 27 23 21 20 20
82 80 103 104 96 101 110 121 116 121 116 114 97 84 78 57 74 65 59 68 88 82 78 69 69 64 61 67 65 58 53 49 44 50 40 34 30 29 28 26 23 23 23
77 80 79 90 99 123 112 115 116 122 119 119 120 103 90 84 89 78 63 73 84 83 81 77 74 68 65 69 65 61 53 51 51 46 43 37 32 29 27 27 27 27 28
64 74 65 85 95 95 111 112 117 123 121 119 129 119 103 90 91 99 79 80 79 84 82 84 79 76 75 73 69 62 57 57 56 50 43 39 37 34 33 33 32 32 31
75 73 63 70 98 110 99 114 119 120 127 124 124 130 120 99 83 99 100 96 68 78 78 81 83 83 79 77 69 66 66 60 55 52 47 45 43 41 39 36 35 32 31
77 80 62 81 47 109 117 118 120 121 124 132 132 130 111 104 100 90 92 107 102 66 72 74 78 84 78 74 71 66 62 60 58 54 50 50 47 44 41 40 37 37 36
78 69 73 69 84 82 125 127 124 123 127 130 139 126 111 106 105 93 84 102 103 83 78 81 93 90 86 78 68 65 63 59 58 56 54 48 47 46 45 45 44 40 37
65 71 67 68 56 56 126 126 134 129 134 129 131 134 123 106 114 105 100 97 96 88 78 81 90 93 87 81 71 72 65 65 63 57 54 49 51 49 50 48 45 41 39
64 73 70 70 61 92 80 117 132 133 133 133 122 133 122 123 109 119 117 99 87 80 83 91 99 96 93 84 79 73 74 67 61 60 55 54 53 52 50 48 43 40 39
56 66 72 75 63 75 53 141 118 125 129 131 131 128 124 123 118 111 114 112 96 86 82 85 81 86 92 86 83 76 72 68 65 60 59 57 54 53 51 47 45 43 42
55 55 75 76 67 66 82 116 123 134 128 131 120 135 123 139 125 115 107 111 101 94 93 84 75 79 86 90 87 88 81 77 73 68 64 61 59 57 53 50 49 48 47
81 65 73 78 74 63 69 105 133 129 133 133 142 134 134 139 127 118 105 112 109 99 96 90 80 88 93 96 97 93 90 85 75 74 73 70 69 66 63 58 55 56 53
107 93 88 94 84 72 69 95 141 141 136 137 144 143 140 136 117 116 111 112 116 116 100 103 94 95 95 93 102 99 98 90 83 83 79 77 73 70 68 64 63 59 57
81 91 94 92 84 72 88 98 127 133 139 138 141 144 140 122 112 107 106 110 116 120 118 99 104 101 97 95 97 104 98 94 95 93 90 86 83 78 71 67 67 64 64
54 53 68 77 76 67 63 107 141 134 135 138 137 133 132 126 116 115 109 109 113 116 118 113 94 94 96 102 98 92 92 103 98 84 93 96 91 84 78 76 74 72 70
54 42 61 68 64 67 62 114 142 130 132 133 132 135 133 146 128 135 121 117 113 110 100 105 99 85 91 94 98 101 93 96 96 94 90 95 91 90 89 83 81 78 75
50 55 60 59 57 58 58 112 124 133 125 121 129 117 135 134 122 125 125 116 111 105 108 111 107 98 91 94 94 90 93 98 106 93 101 97 92 96 78 90 87 86 83
Wind_Direction_850mb
240 237 232 228 233 234 233 220 218 188 196 332 154 174 184 182 182 184 187 185 190 181 179 185 192 199 200 188 167 162 168 173 164 153 147 140 139 135 129 124 124 117 115
238 234 228 232 228 225 220 223 218 211 248 252 254 283 234 181 182 177 182 181 184 179 180 173 180 171 168 167 166 162 154 158 151 149 143 145 143 140 140 132 126 118 111
235 230 232 232 230 224 221 215 226 239 233 222 226 223 205 192 195 183 177 183 179 179 185 184 169 162 163 163 164 163 158 157 155 157 151 150 147 143 136 130 126 119 111
241 227 233 231 233 220 215 210 202 191 186 183 176 179 186 185 188 189 183 183 182 183 181 169 167 167 162 167 164 160 158 155 157 156 154 148 143 136 133 128 124 119 113
244 230 231 226 224 212 205 209 200 196 188 185 186 186 187 185 182 196 194 194 203 192 175 169 171 173 168 170 164 159 158 158 156 156 152 145 139 133 130 127 124 119 113
248 227 225 225 219 212 209 207 198 192 187 182 183 182 186 189 187 197 188 191 200 194 180 178 176 173 172 169 167 163 158 158 156 153 148 141 136 133 131 129 126 120 116
249 225 228 222 220 214 211 205 197 191 187 181 172 170 182 193 196 198 192 201 202 187 178 174 171 174 174 177 171 163 157 154 151 152 149 145 141 138 138 135 131 129 123
252 250 230 226 223 215 211 206 197 188 184 184 179 171 171 187 197 199 201 198 190 185 178 177 176 177 181 180 167 162 155 156 154 156 156 150 149 149 146 146 141 136 137
265 251 237 217 224 222 214 208 198 193 187 192 191 180 168 189 189 195 197 197 201 186 176 176 175 179 186 174 164 164 164 159 159 164 166 164 159 159 161 179 183 182 178
288 250 246 228 217 226 218 210 204 197 196 193 191 186 182 183 176 182 188 188 188 186 181 179 181 183 187 177 173 176 180 184 180 186 184 188 190 192 189 192 187 190 193
273 310 240 237 239 221 219 212 210 203 203 198 193 187 189 189 184 188 187 191 186 184 189 188 188 189 193 190 188 188 190 190 199 200 196 206 206 202 204 207 207 211 217
277 290 256 238 227 223 220 205 211 208 205 202 195 188 191 190 187 189 191 188 180 181 183 189 191 191 196 197 200 200 198 203 203 205 208 218 224 224 223 225 221 214 215
297 273 289 238 227 225 218 212 208 206 203 196 197 193 197 198 201 199 189 191 186 178 183 192 195 197 200 205 206 205 203 207 210 215 222 230 233 231 226 224 219 217 218
306 286 283 302 220 215 226 208 212 209 202 198 198 200 198 197 198 200 200 195 185 180 188 188 197 201 203 208 210 212 216 217 221 224 226 230 230 228 222 220 218 217 205
306 295 279 255 308 226 217 210 202 206 198 199 200 200 202 202 198 196 202 202 202 190 196 196 201 206 209 211 214 216 220 220 222 223 224 225 224 220 213 213 205 199 199
294 294 290 280 262 234 214 213 205 200 198 198 202 205 204 207 201 202 194 203 204 198 200 206 208 209 209 213 215 219 220 218 217 216 217 214 213 213 209 200 198 201 204
282 290 297 287 255 305 208 200 200 201 204 198 201 202 205 214 208 207 209 215 209 209 204 204 213 212 212 214 212 216 216 213 211 209 209 208 208 205 200 202 203 202 208
276 284 292 303 274 243 231 211 206 205 204 194 196 204 206 212 210 206 209 213 212 211 210 209 214 214 214 210 213 212 211 209 207 205 203 204 201 200 205 206 206 210 214
288 278 281 290 275 244 297 204 208 207 207 207 203 204 203 209 212 214 215 215 213 212 214 218 214 207 205 203 203 206 207 205 205 204 201 198 202 205 207 211 214 212 206
270 281 277 286 289 270 249 206 205 204 209 207 213 202 203 202 213 214 215 215 212 211 213 216 219 207 202 198 199 199 197 201 200 200 200 202 205 206 208 212 212 209 203
258 263 275 283 289 278 239 208 206 208 206 203 203 204 206 206 214 217 215 212 210 211 212 213 209 203 195 194 196 198 201 197 197 204 202 206 206 207 207 207 207 206 204
255 259 267 278 288 273 234 217 204 205 205 203 205 203 204 211 211 215 218 215 212 210 209 209 209 205 204 202 199 200 200 196 198 205 207 210 210 212 212 210 208 208 205
267 261 267 275 273 267 229 220 213 205 207 206 205 205 209 213 213 215 217 219 215 216 219 217 214 211 208 206 204 202 207 210 209 209 206 210 211 211 213 212 210 210 211
258 251 257 261 268 259 244 215 207 201 206 208 209 210 214 213 216 216 217 217 220 219 220 225 230 223 215 208 209 210 212 207 209 209 208 208 209 213 213 212 211 211 212
257 249 253 262 262 255 240 214 206 199 205 211 211 212 211 212 210 216 219 218 219 220 220 227 225 227 223 222 216 210 209 209 207 211 209 213 212 212 212 212 211 212 212
253 255 259 259 264 257 240 215 210 204 210 213 213 222 213 216 218 218 217 216 218 218 216 217 219 224 227 230 230 229 230 218 213 209 211 210 213 211 207 211 213 212 212